OBJECT C, 44881

Orbit data source: Space-Track

You're viewing an Uncataloged Satellite

Recently launched and/or uncataloged satellites may have evolving metadata. Metadata may include but not limited to: Owner, Maufacturer, Bus, Motor, and Mission.

OBJECT C, 44881 is a satellite in SSO that was launched on Fri, 20 Dec 2019 UTC via a CHANG ZHENG 4B launch vehicle from the Taiyaun Space Center, China (TSC). Unknown objects in Earth's orbit typically refer to objects detected orbiting the Earth but have not yet been identified or cataloged. These objects could be anything from previously untracked satellites, spent rocket stages, debris from satellite collisions, or even natural meteoroids temporarily captured by Earth's gravity.

Loading next visibility...
Identifier
44881, 2019-093C
Orbit
SSO
Country
Flag of TBDTBD
Related business
Flag of CNSun Yat-sen University (CN)
Manufacturer
DFH Shenzhen
Mission
Operational Commercial Science
Bus & Motor
TIANQIN, Unknown motor
Mass
35 kg wet, 35 kg dry
Launch date (UTC)
2019-12-20 (6 years ago)
Launch vehicle
CHANG ZHENG 4B
Launch site
Taiyaun Space Center, China (TSC)
Object type
Unknown
Shape & HBR
Box, 0.1 m
Radar Cross Section
0.105 m², Medium (>0.1 m² and < 1m²)

Expand to show TLE details & history
Last TLE update: 15 hours ago

TLE from 15 hours ago
0 OBJECT C
1 44881U 19093C   25261.24829133  .00000885  00000-0  10784-3 0  9999
2 44881  97.7850 334.7665 0012331 259.9159 100.0666 14.85794580311024
Epoch: 2025-09-18T05:57Z
TLE epoch observation values (Epoch: 2025-09-18T05:57:32.37Z)
Latitude
0.00001°
Longitude
-112.03099°
Altitude
615.643 km
Speed
7.55 km/s
True Right ascension
22h 19m 03s
True Declination
0° 00' 00"
Sunlit
Object was in full shadow at epoch
Visualization orbit readout
Latitude
Unknown
Longitude
Unknown
Altitude
Unknown
Speed
Unknown
Apparent Right ascension
Unknown
Apparent Declination
Unknown
Sunlit
N/A
Visualization observer readout
Local Sidereal Time
13:45:04
Azimuth
Unknown
Elevation
Unknown
Doppler factor
Unknown
Orbital elements
Apogee altitude
616.736 km
Perigee altitude
599.506 km
Semi-major axis
6,986.258 km
Eccentricity
0.00123
Inclination
97.785°
RAAN
334.7665°
Arg. of periapsis
259.9159°
True anomaly
100.20569°
Mean anomaly
100.0666°
Eccentric anomaly
100.13615°
Mean motion
3.71686 °/min
Orbital period
96.86 mins
BSTAR
0.00010784
Loading maneuver chart data...
Computing Atmospheric mass density...
Loading historical data...
Loading historical data...
Loading historical data...
Loading historical data...
Loading historical data...
Loading historical data...
Loading historical data...

Documentation

Showing up to 5 results
|